Hlavní strana
METAR-TAF:

METAR-TAF

Letiště :

Olive Branch Airport

Olive Branch, Mississippi, Spojené státy americké

zeměpisná šířka: 34-58-44N, zeměpisná délka: 089-47-13W, výška: 122 m

Aktuální stav počasí

Zpráva byla vytvořena před 24 minutami, v 18:50 UTC
Severoseverozápadní vítr 17 kt
Teplota 11°C
Vlhkost vzduchu 100%
Tlak 1018 hPa
Viditelnost: 6.4 km
Oblačno až skoro zataženo ve výšce 500 ft
Zataženo ve výšce 800 ft
slabý déšť, kouřmo

METAR: KOLV 181850Z 34017KT 4SM -RA BR BKN005 OVC008 11/11 A3007

Čas: 13:14 (19:14 UTC)


TAF: chybějící

Stav a předpovědi počasí z více než 4 000 letišť (zprávy METAR a TAF).

Červené a žluté tečky na mapě představují dostupné meteorologické stanice.

Když kurzor umístíte na tečku, zobrazí se název stanice.

Pak kliknutím zobrazíte stav a předpověď počasí.

Chcete-li změnit mapu, kliknutím na zelené tlačítko se znaménkem +mapu přiblížíte, kliknutím na zelené tlačítko se znaménkem – mapu oddálíte a kliknutím na zelené šipky přejdete na sousední mapy.


METAR-TAF: